DW5499 Weather Reports


time (UTC)temp
F
wind
direction
speed
knots
gust
knots
rain 1hr
in
rain 24hr
in
rain mn
in
humidity
%
barometer
mb
20260508033008 62 201 5.2 12.2 0.00 0.00 0.00 55 1010.9
20260508031508 63 207 5.2 8.7 0.00 0.00 0.00 55 1010.9
20260508030007 63 204 4.3 9.6 0.00 0.00 0.00 54 1010.7
20260508024507 64 196 5.2 13.0 0.00 0.00 0.00 53 1010.5
20260508023019 64 212 2.6 10.4 0.00 0.00 0.00 52 1010.4
20260508021511 64 139 5.2 8.7 0.00 0.00 0.00 52 1010.2
20260508020005 65 158 3.5 7.0 0.00 0.00 0.00 51 1010.1
20260508014517 66 169 3.5 7.0 0.00 0.00 0.00 49 1009.9
20260508013005 66 182 3.5 7.8 0.00 0.00 0.00 48 1009.9
20260508011505 67 178 5.2 9.6 0.00 0.00 0.00 47 1009.9
20260508010004 68 192 5.2 9.6 0.00 0.00 0.00 46 1009.9
20260508004513 68 141 5.2 8.7 0.00 0.00 0.00 45 1009.9
20260508003012 69 207 4.3 10.4 0.00 0.00 0.00 44 1009.8
20260508001502 69 177 5.2 13.0 0.00 0.00 0.00 43 1009.9
20260508000000 70 144 5.2 13.9 0.00 0.00 0.00 42 1010.0
20260507234601 70 194 4.3 10.4 0.00 0.00 0.00 42 1010.1
20260507233058 70 174 7.0 13.9 0.00 0.00 0.00 40 1010.3
20260507231557 71 209 4.3 10.4 0.00 0.00 0.00 40 1010.4
20260507230057 70 217 5.2 12.2 0.00 0.00 0.00 40 1010.6
20260507224611 70 153 5.2 10.4 0.00 0.00 0.00 41 1010.7
20260507223056 70 232 7.0 13.0 0.00 0.00 0.00 41 1010.8
20260507221548 69 246 4.3 17.4 0.00 0.00 0.00 43 1010.9
20260507220047 69 151 8.7 15.6 0.00 0.00 0.00 43 1011.0
20260507214550 69 222 7.8 17.4 0.00 0.00 0.00 43 1011.0
20260507213045 68 237 11.3 19.1 0.00 0.00 0.00 43 1011.2
20260507211600 69 278 7.8 20.0 0.00 0.00 0.00 44 1011.3
20260507210042 69 144 6.1 15.6 0.00 0.00 0.00 44 1011.6
20260507204538 68 216 8.7 16.5 0.00 0.00 0.00 44 1011.8
20260507203036 68 245 9.6 16.5 0.00 0.00 0.00 45 1012.1
20260507201533 67 164 7.8 18.2 0.00 0.00 0.00 46 1012.4
20260507200029 67 195 11.3 19.1 0.00 0.00 0.00 47 1012.8
20260507194528 66 173 7.8 19.1 0.00 0.00 0.00 47 1012.9
20260507193024 65 180 8.7 19.1 0.00 0.00 0.00 48 1013.2
20260507191522 65 193 8.7 20.9 0.00 0.00 0.00 49 1013.4
20260507190027 65 220 12.2 16.5 0.00 0.00 0.00 48 1013.4
20260507184520 64 205 7.8 19.1 0.00 0.00 0.00 49 1013.6
20260507183022 64 193 6.1 20.9 0.00 0.00 0.00 50 1013.7
20260507181514 64 232 7.8 19.1 0.00 0.00 0.00 50 1014.0
20260507180014 64 217 8.7 19.1 0.00 0.00 0.00 50 1014.4
20260507174510 63 219 7.8 13.9 0.00 0.00 0.00 50 1014.6
20260507173007 62 207 10.4 17.4 0.00 0.00 0.00 51 1015.0
20260507171506 62 286 7.8 18.2 0.00 0.00 0.00 52 1015.0
20260507170003 61 248 7.8 15.6 0.00 0.00 0.00 52 1015.4
20260507164603 61 228 8.7 19.1 0.00 0.00 0.00 53 1015.6
20260507163058 61 233 10.4 20.0 0.00 0.00 0.00 54 1015.9
20260507161559 60 223 10.4 20.0 0.00 0.00 0.00 53 1016.1
20260507160053 59 245 12.2 18.2 0.00 0.00 0.00 55 1016.1
20260507154551 59 245 9.6 20.9 0.00 0.00 0.00 55 1016.2
20260507153054 58 216 9.6 20.0 0.00 0.00 0.00 57 1016.3
20260507151548 58 201 5.2 16.5 0.00 0.00 0.00 58 1016.4
20260507150045 57 207 9.6 13.9 0.00 0.00 0.00 60 1016.6
20260507144542 56 213 7.8 15.6 0.00 0.00 0.00 61 1016.7
20260507143042 56 230 7.8 18.2 0.00 0.00 0.00 62 1016.9
20260507141538 55 174 5.2 11.3 0.00 0.00 0.00 64 1016.7
20260507140042 54 237 3.5 10.4 0.00 0.00 0.00 66 1016.9
20260507134531 53 207 5.2 12.2 0.00 0.00 0.00 69 1016.9
20260507133031 52 231 4.3 13.0 0.00 0.00 0.00 70 1016.9
20260507131536 51 188 4.3 12.2 0.00 0.00 0.00 70 1016.9
20260507130028 50 209 5.2 11.3 0.00 0.00 0.00 71 1017.0
20260507124531 50 198 5.2 10.4 0.00 0.00 0.00 73 1017.2
20260507123028 49 215 3.5 12.2 0.00 0.00 0.00 74 1017.3
20260507121526 47 230 3.5 9.6 0.00 0.00 0.00 76 1017.3
20260507120024 46 176 1.7 5.2 0.00 0.00 0.00 77 1017.2
20260507114523 46 185 0.9 3.5 0.00 0.00 0.00 77 1017.2
20260507113023 45 204 0.0 3.5 0.00 0.00 0.00 77 1017.2
20260507111521 45 148 4.3 9.6 0.00 0.00 0.00 76 1017.1
20260507110019 46 172 0.0 4.3 0.00 0.00 0.00 75 1017.1
20260507104524 46 170 0.0 2.6 0.00 0.00 0.00 73 1017.1
20260507103015 46 192 0.0 2.6 0.00 0.00 0.00 72 1017.1
20260507101512 46 187 0.0 4.3 0.00 0.00 0.00 71 1017.3
20260507100025 47 201 0.0 1.7 0.00 0.00 0.00 70 1017.4
20260507094508 47 229 0.9 2.6 0.00 0.00 0.00 69 1017.4
20260507093005 48 196 0.0 2.6 0.00 0.00 0.00 67 1017.4
20260507091512 48 248 0.9 3.5 0.00 0.00 0.00 66 1017.5
20260507090002 49 257 0.0 3.5 0.00 0.00 0.00 65 1017.5
20260507084601 49 256 0.9 4.3 0.00 0.00 0.00 64 1017.5
20260507083105 49 214 0.9 4.3 0.00 0.00 0.00 63 1017.6
20260507081600 49 226 0.0 4.3 0.00 0.00 0.00 63 1017.7
20260507080056 49 232 0.0 4.3 0.00 0.00 0.00 61 1017.7
20260507074554 50 255 0.9 5.2 0.00 0.00 0.00 59 1017.7
20260507073102 51 257 1.7 4.3 0.00 0.00 0.00 57 1017.7
20260507071556 51 305 0.9 6.1 0.00 0.00 0.00 56 1017.8
20260507070135 51 229 1.7 5.2 0.00 0.00 0.00 54 1018.1
20260507064551 52 234 1.7 6.1 0.00 0.00 0.00 53 1018.2
20260507063048 52 207 2.6 6.1 0.00 0.00 0.00 52 1018.3
20260507061548 53 257 2.6 7.0 0.00 0.00 0.00 50 1018.4
20260507060052 53 254 3.5 7.8 0.00 0.00 0.00 49 1018.4
20260507054551 52 218 2.6 4.3 0.00 0.01 0.00 50 1018.4
20260507053043 51 228 0.9 3.5 0.00 0.01 0.00 53 1018.5
20260507051538 50 181 0.0 1.7 0.00 0.01 0.00 62 1018.4
20260507050035 49 205 0.0 0.0 0.00 0.01 0.00 67 1018.4
20260507044544 49 205 0.0 0.0 0.00 0.01 0.01 69 1018.5
20260507043039 49 205 0.0 0.0 0.00 0.01 0.01 69 1018.6
20260507041533 49 205 0.0 0.9 0.00 0.01 0.01 71 1018.5
20260507040032 49 241 0.0 0.0 0.00 0.01 0.01 64 1018.6
20260507034533 49 241 0.0 0.0 0.00 0.01 0.01 65 1018.7